Location: Avon School (historical)
(37.7514°N, 90.2201°W)
Time: 18:48:59
(UTC+00:00)

S-56A Canister/Altair - Visible Passes

Search period start: 07 November 2024 00:00
Search period end: 17 November 2024 00:00
Orbit: 635 x 2487 km, 38.9° (Epoch: 06 November)

Date Brightness Start Highest point End Pass type
(mag) Time Alt. Az. Time Alt. Az. Time Alt. Az.
07 Nov 10.4 07:44:08 47° E 07:44:08 47° E 07:53:44 10° ENE visible
07 Nov 9.8 09:41:26 57° W 09:45:43 86° N 10:00:21 10° E visible
07 Nov 10.0 11:38:45 13° WNW 11:53:07 83° SSW 12:05:59 10° ESE visible
08 Nov 10.9 07:11:48 33° E 07:11:48 33° E 07:18:36 10° ENE visible
08 Nov 9.7 09:09:06 78° W 09:10:30 87° N 09:25:29 10° E visible
08 Nov 10.0 11:06:25 22° WNW 11:18:00 86° SSW 11:31:31 10° ESE visible
09 Nov 11.3 06:39:27 22° ENE 06:39:27 22° ENE 06:43:25 10° ENE visible
09 Nov 9.8 08:36:45 78° ENE 08:36:45 78° ENE 08:50:32 10° E visible
09 Nov 9.9 10:34:04 33° W 10:42:50 89° SSW 10:56:54 10° ESE visible
10 Nov 11.6 06:07:07 13° ENE 06:07:07 13° ENE 06:08:09 10° ENE visible
10 Nov 10.2 08:04:25 57° E 08:04:25 57° E 08:15:28 10° E visible
10 Nov 9.9 10:01:43 47° W 10:07:37 89° N 10:22:11 10° ESE visible
10 Nov 10.2 11:59:34 10° WNW 12:14:22 63° SSW 12:27:01 10° SE visible
11 Nov 10.6 07:32:05 40° E 07:32:05 40° E 07:40:20 10° E visible
11 Nov 9.7 09:29:24 66° WNW 09:32:24 87° N 09:47:20 10° E visible
11 Nov 10.1 11:26:42 17° WNW 11:39:23 68° SSW 11:52:41 10° SE visible
12 Nov 11.1 06:59:46 27° ENE 06:59:46 27° ENE 07:05:07 10° ENE visible
12 Nov 9.7 08:57:05 86° N 08:57:10 86° N 09:12:22 10° E visible
12 Nov 10.0 10:54:23 27° WNW 11:04:19 73° SSW 11:18:14 10° SE visible
13 Nov 11.5 06:27:28 17° ENE 06:27:28 17° ENE 06:29:51 10° ENE visible
13 Nov 10.0 08:24:47 67° E 08:24:47 67° E 08:37:18 10° E visible
13 Nov 9.9 10:22:06 40° W 10:29:12 77° SSW 10:43:37 10° ESE visible
14 Nov 10.4 07:52:32 47° E 07:52:32 47° E 08:02:08 10° E visible
14 Nov 9.8 09:49:51 57° W 09:54:03 81° SSW 10:08:53 10° ESE visible
14 Nov 10.4 11:47:09 12° WNW 12:00:07 46° SW 12:12:44 10° SSE visible
15 Nov 10.9 07:20:18 32° E 07:20:18 32° E 07:26:53 10° E visible
15 Nov 9.7 09:17:37 78° WSW 09:18:52 84° SSW 09:34:00 10° ESE visible
15 Nov 10.3 11:14:56 21° W 11:25:12 51° SW 11:38:30 10° SE visible
16 Nov 11.3 06:48:06 20° E 06:48:06 20° E 06:51:34 10° E visible
16 Nov 9.8 08:45:26 76° ESE 08:45:26 76° ESE 08:59:00 10° ESE visible
16 Nov 10.1 10:42:45 32° W 10:50:14 56° SSW 11:04:08 10° SE visible
